Regional Weather Roundup
Issued by NWS Sterling, VA

Home | Current Version | Previous Version | Text Only | Print | Product List | Glossary Off
Versions: 1 2 3 4 5 6 7 8 9 10 11 12 13 14 15 16 17 18 19 20 21 22 23 24 25 26 27 28 29 30 31 32 33 34 35 36 37 38 39 40 41 42 43 44 45 46 47 48 49 50

000
ASUS41 KLWX 272010
RWRLWX

REGIONAL WEATHER ROUNDUP
NATIONAL WEATHER SERVICE BALTIMORE MD/WASHINGTON DC
400 PM EDT FRI MAY 27 2016

Note: "FAIR" indicates few or no clouds below 12,000 feet
with no significant weather and/or obstructions to visibility.
 TC=TEMPERATURE CELSIUS

 * =Non NWS site. Station does not report precipitation (e.g. rain,
    snow, etc.), thunder, or fog.

DCZ001-MDZ009-015-VAZ040>042-051-053>054-272100-
WASHINGTON METRO

CITY           SKY/WX    TMP DP  RH WIND       PRES   REMARKS
WASHINGTON NAT FAIR      86  69  56 S14       30.04F HX  90
DULLES         PTSUNNY   88  66  48 S10G16    30.04F HX  90
ANDREWS AFB    SUNNY     88  68  50 S13       30.05S HX  91
FT BELVOIR     FAIR      88  69  51 VRB3      30.04F HX  92
QUANTICO       FAIR      84  72  67 S8        30.05F
COLLEGE PARK*  FAIR      88  63  42 SW6       30.04S
LEESBURG*      FAIR      91  68  46 S6G20     30.05F HX  95
MANASSAS*      MOSUNNY   88  66  48 S9        30.04F HX  90

$$

MDZ006>007-011-014-272100-
BALTIMORE METRO

CITY           SKY/WX    TMP DP  RH WIND       PRES   REMARKS
BWI AIRPORT    PTSUNNY   88  69  53 SE10      30.03F HX  92
MD SCIENCE CTR   N/A     89  68  49 MISG      30.03F HX  93
ANNAPOLIS      SUNNY     81  70  69 S15       30.05S
FORT MEADE*    MOSUNNY   86  68  54 SE8       30.06S

$$

MDZ012-015-019>023-272100-
MARYLAND EASTERN SHORE

CITY           SKY/WX    TMP DP  RH WIND       PRES   REMARKS
OCEAN CITY     SUNNY     73  62  68 S10G24    30.11S
SALISBURY      SUNNY     86  65  49 SW14      30.08S
BAY BRIDGE AP* SUNNY     86  68  54 S13G20    30.06S
CAMBRIDGE*     SUNNY     82  66  57 S12       30.08S
EASTON*        SUNNY     86  73  66 S12G18    30.11S HX  93

$$

MDZ017>025-272100-
SOUTHERN MARYLAND

CITY           SKY/WX    TMP DP  RH WIND       PRES   REMARKS
PATUXENT RIVER MOSUNNY   81  67  62 SE10      30.06F
ST INIGOES     SUNNY     85  69  58 S8        30.06S
LEONARDTOWN*   MOSUNNY   86  66  51 SE7       30.08F

$$

MDZ003>005-272100-
NORTH CENTRAL MARYLAND

CITY           SKY/WX    TMP DP  RH WIND       PRES   REMARKS
FREDERICK*     SUNNY     90  72  55 S5        30.06F HX  96
HAGERSTOWN APT CLOUDY    88  62  41 VRB6      30.04F
WESTMINSTER*   CLOUDY    88  84  89 SW8       30.06F HX 112

$$

MDZ501>502-272100-
WESTERN MARYLAND

CITY           SKY/WX    TMP DP  RH WIND       PRES   REMARKS
OAKLAND*       PTSUNNY   79  59  50 W8        30.16F
CUMBERLAND*    CLOUDY    73  68  83 N6        30.09F

$$

VAZ025>031-272100-
SHENANDOAH VALLEY

CITY           SKY/WX    TMP DP  RH WIND       PRES   REMARKS
WINCHESTER*    FAIR      88  64  45 SE6       30.05S
FRONT ROYAL*   FAIR      88  68  51 S3        30.04F HX  91
LURAY*         FAIR      88  63  42 SE5       30.05F
NEW MARKET*    MOCLDY    87  67  50 S5        30.03S HX  90
STAUNTON*      FAIR      85  65  51 S10       30.09F
WAYNESBORO*    FAIR      84  65  51 S9        30.10F

$$

WVZ021-048>050-054>055-272100-
EASTERN WEST VIRGINIA PANHANDLE

CITY           SKY/WX    TMP DP  RH WIND       PRES   REMARKS
MARTINSBURG    FAIR      88  64  44 VRB3      30.03F
PETERSBURG*    TSTM      74  71  89 SE7       30.10S

$$

VAZ036>039-050-272100-
CENTRAL FOOTHILLS

CITY           SKY/WX    TMP DP  RH WIND       PRES   REMARKS
CHARLOTTESVILL NOT AVBL
CULPEPER*      FAIR      89  69  52 S7        30.05F HX  93
ORANGE*        FAIR      88  66  48 SW8       30.07F HX  90
GORDONSVILLE*  FAIR      87  70  55 S8        30.05F HX  92
WARRENTON*     FAIR      89  62  39 S8        30.05S

$$

VAZ055>057-272100-
NORTH AND CENTRAL PIEDMONT

CITY           SKY/WX    TMP DP  RH WIND       PRES   REMARKS
FREDERICKSBRG* FAIR      91  68  47 S9        30.04S HX  95
STAFFORD*      FAIR      88  65  46 SW7       30.08F HX  90

$$

NCZ024-NYZ072-PAZ021-071-VAZ022-071-272100-
OTHER REGIONAL OBSERVATIONS

CITY           SKY/WX    TMP DP  RH WIND       PRES   REMARKS
NEW YORK CITY  MOSUNNY   79  62  56 S9G18     30.05F
PHILADELPHIA   MOSUNNY   89  64  43 SW13      30.04R HX  90
PITTSBURGH     PTSUNNY   86  60  41 VRB6      30.04F
ROANOKE        PTSUNNY   82  64  54 S9        30.11F
RICHMOND       PTSUNNY   86  66  51 S13       30.08S
RALEIGH        PTSUNNY   86  64  47 S7        30.10F

$$

ANZ530>537-272100-
MARINE OBSERVATIONS

STATION/POSITION TIME  TEMP    WIND        PRES
                       AIR SEA DIR/SP/G
                 (UTC) (F)     (DEG/KT/KT) (MB)
THOMAS PT LIGHT  2000   73 67  180/ 11/ 12 1019.0F
BALT KEY BRIDGE  1900   81     140/ 16/ 17 1016.8F
COVE POINT       1900   70     190/ 12/ 13 1019.1F
LEWISETTA        1900   84 71  200/ 11/ 12 1017.8F
SOLOMONS ISLAND  1900   75 67  120/ 12/ 14   N/A
PINEY POINT      1900          150/ 11/ 12   N/A

$$




USA.gov is the U.S. government's official web portal to all federal, state and local government web resources and services.